Regional Weather Roundup
Issued by NWS

Home | Current Version | Previous Version | Graphics & Text | Print | Product List | Glossary Off
Versions: 1 2 3 4 5 6 7 8 9 10 11 12 13 14 15 16 17 18 19 20 21 22 23 24 25 26 27 28 29 30 31 32 33 34 35 36 37 38 39 40 41 42 43 44 45 46 47 48 49 50

411
ASUS44 KLIX 191710
RWRLA
LOUISIANA WEATHER ROUNDUP
NATIONAL WEATHER SERVICE NEW ORLEANS LA
1200 PM CDT FRI SEP 19 2014

NOTE: "FAIR" INDICATES FEW OR NO CLOUDS BELOW 12,000 FEET WITH NO
      SIGNIFICANT WEATHER AND/OR OBSTRUCTIONS TO VISIBILITY.
      SKY/WX - SKY CONDITION AND SIGNIFICANT WEATHER.
      TMP - AIR TEMPERATURE.    DP   - DEWPOINT TEMPERATURE.
      RH  - RELATIVE HUMIDITY.  PRES - PRESSURE.
      HX  - HEAT INDEX.         WCI  - WIND CHILL INDEX.

*  THESE STATIONS ARE NOT NWS OR FAA STATIONS AND ARE NOT UNDER
   NWS QUALITY CONTROL.

LAZ040-048-061>063-065-066-069-191800-
SOUTHEAST LOUISIANA

CITY           SKY/WX    TMP DP  RH WIND       PRES   REMARKS
N.O. AUDUBON     N/A     86  71  61 MISG        N/A
N.O. INTL ARPT PTSUNNY   84  67  56 E9        29.97S
N.O. LAKEFRONT MOSUNNY   84  70  62 E14       29.98R
N.O. DOWNTOWN* PTSUNNY   84  66  54 SE5       29.98S
SLIDELL        MOSUNNY   84  71  65 E8        29.98S
BATON ROUGE    PTSUNNY   83  71  67 SE9       29.98S
BOOTHVILLE     RAIN      77  74  90 SE12G18   29.96S FOG
BELLE CHASSE   PTSUNNY   84  68  58 E13       29.96S
BOGALUSA*        N/A     86  68  53 CALM      30.00S
GALLIANO*      NOT AVBL
NEW ROADS*     FAIR      83  72  69 E6        29.99S
GONZALES*      PTSUNNY   84  75  74 NE8       29.97S
HAMMOND*       MOSUNNY   84  68  58 SE5       30.00S
HOUMA*         PTSUNNY   84  54  34 MISG      29.96S
PORT FOURCHON* CLOUDY    81  73  78 E12G18    29.98S

$$

LAZ041-044-053-054-191800-
SOUTHWEST LOUISIANA

CITY           SKY/WX    TMP DP  RH WIND       PRES   REMARKS
LAKE CHARLES   PTSUNNY   82  74  76 E7        29.95S
LAFAYETTE      MOSUNNY   83  71  67 VRB5      29.97F
PATTERSON      MOSUNNY   84  73  70 E14       29.98F
SALT POINT       N/A     85  73  67 SE10      29.94F
NEW IBERIA     MOSUNNY   84  73  69 E9        29.97F
CHENAULT AIRPK PTSUNNY   81  75  83 E9        29.96F

$$

LAZ027-028-191800-
CENTRAL LOUISIANA

CITY           SKY/WX    TMP DP  RH WIND       PRES   REMARKS
FORT POLK      CLOUDY    82  72  71 S6        29.97F
ALEXANDRIA INT SUNNY     85  70  60 SE7       29.97S
ALEXANDRIA     MOSUNNY   84  71  65 VRB5      29.99S

$$

LAZ001-002-191800-
NORTHWEST LOUISIANA

CITY           SKY/WX    TMP DP  RH WIND       PRES   REMARKS
SHREVEPORT     PTSUNNY   82  72  71 VRB7      29.98F
BARKSDALE AFB  PTSUNNY   82  70  65 E6        29.99F
DTN SHREVEPORT MOSUNNY   82  71  69 E8        29.99F

$$

LAZ014-016-191800-
NORTHEAST LOUISIANA

CITY           SKY/WX    TMP DP  RH WIND       PRES   REMARKS
MONROE         MOSUNNY   84  70  62 E3        30.01S
TALLULAH       MOSUNNY   86  68  54 E5        30.00F

$$




USA.gov is the U.S. government's official web portal to all federal, state and local government web resources and services.